Weather in Lizogubovka

Russia / Bryansk Oblast     52°54′51″N   33°07′16″E
temp.,
°C
wind,
m/s
gust,
m/s
humid.,
%
clouds,
%
prec.,
mm/h
press.,
hPa
HPBL,
m
18 august, thu
thu1800:00+20e3106390 0.0 1014279
03:00+19ene486599 0.0 1014195
06:00+19ene4106486 0.0 1014243
09:00+22ene5126460 0.0 1014487
12:00+21ne4106763 0.0 1015423
15:00+24ne6125722 0.0 1014637
18:00+23ne614617 0.0 1014654
21:00+22ne6145487 0.0 1015521
19 august, fri
fri1900:00+18ne412695 0.0 1016260
03:00+17ne411736 0.0 1016207
06:00+18ne511626 0.0 1016313
09:00+20ene613675 0.0 1017649
12:00+23e8106291 0.0 10171513
15:00+21ene81072100 0.1 1018937
18:00+18ene71081100 0.1 1018734
21:00+17ene61389100 0.1 1019744
20 august, sat
sat2000:00+17e61086100 0.1 1019916
03:00+16ene61190100 0.2 1018720
06:00+16ene598788 0.0 1018567
09:00+18e577855 0.0 1017639
12:00+23e5658100 0.0 10161250
15:00+23e4764100 0.0 10161075
18:00+22ese51067100 0.3 1016306
21:00+19e51260100 0.3 1017344
21 august, sun
sun2100:00+19ese51148100 0.0 1017347
03:00+16e496012 0.0 1017156
06:00+16ese4115711 0.0 1017223
09:00+21ese6125438 0.0 1016568
12:00+25se69426 0.0 10161233
15:00+27se684039 0.0 10161537
18:00+22ese595040 0.0 1017345
21:00+19e4114797 0.0 1017190
22 august, mon
mon2200:00+20e5123681 0.0 1016305
03:00+17e4123683 0.0 1017218
06:00+16e4113764 0.0 1017186
09:00+20ese512485 0.0 1018323
12:00+25ese593882 0.0 1017713
15:00+28ese6103890 0.0 10171791
18:00+24ese4950100 0.0 1017237
21:00+21e4105085 0.0 1018157